STARLINK-34811, 65396

Orbit data source: Space-Track

STARLINK-34811, 65396 is a payload satellite owned by SpaceX/Seattle (US) in SSO that was launched on Sat, 30 Aug 2025 UTC via an FALCON 9 launch vehicle from the Air Force Western Test Range (AFWTR). Payload-class satellites include a variety of spacecraft equipped with specific instruments for various scientific and technological missions. These include communications satellites like Starlink; space stations such as the ISS; scientific satellites like the Hubble; Earth observation satellites from companies like Planet Labs, Umbra, and HawkEye 360; GPS; miniature CubeSats for education and research; and military/defense satellites.

Loading next visibility...
Identifier
65396, 2025-191T
Orbit
SSO
Country
Flag of USUS
Related business
Manufacturer
SpaceX/Seattle
Mission
Operational Commercial Communications
Bus & Motor
STARLINK V2MO, Unknown motor
Mass
575 kg wet, ~530 kg dry
Launch date (UTC)
2025-08-30 (7 months ago)
Launch vehicle
FALCON 9
Launch site
Air Force Western Test Range (AFWTR)
Object type
Payload
Rocket body
Debris
Shape & HBR
Box + 2 Pan, 17.7 m
Radar Cross Section
36.964 m², Large (>1 m²)

Expand to show TLE details & history
Last TLE update: 15 hours ago

TLE from 15 hours ago
0 STARLINK-34811
1 65396U 25191T   26093.59768700  .00005609  00000-0  39249-3 0  9999
2 65396  97.6021 326.0202 0002563  77.2981 282.8533 15.05660027 34012
Epoch: 2026-04-03T14:20Z
TLE epoch observation values (Epoch: 2026-04-03T14:20:40.156Z)
Latitude
0.00004°
Longitude
-81.07665°
Altitude
552.151 km
Speed
7.586 km/s
True Right ascension
21h 44m 04s
True Declination
0° 00' 00"
Sunlit
Object was in daylight at epoch
Visualization orbit readout
Latitude
Unknown
Longitude
Unknown
Altitude
Unknown
Speed
Unknown
Apparent Right ascension
Unknown
Apparent Declination
Unknown
Sunlit
N/A
Visualization observer readout
Local Sidereal Time
11:21:14
Azimuth
Unknown
Elevation
Unknown
Doppler factor
Unknown
Orbital elements
Apogee altitude
548.249 km
Perigee altitude
544.699 km
Semi-major axis
6,924.611 km
Eccentricity
0.00026
Inclination
97.6021°
RAAN
326.0202°
Arg. of periapsis
77.2981°
True anomaly
282.82466°
Mean anomaly
282.8533°
Eccentric anomaly
282.83898°
Mean motion
3.76661 °/min
Orbital period
95.58 mins
BSTAR
0.00039249
Loading maneuver chart data...
Computing Atmospheric mass density...
Loading historical data...
Loading historical data...
Loading historical data...
Loading historical data...
Loading historical data...
Loading historical data...
Loading historical data...

Documentation

Showing up to 5 results
|